Regional Weather Roundup
Issued by NWS

Home | Current Version | Previous Version | Text Only | Print | Product List | Glossary On
Versions: 1 2 3 4 5 6 7 8 9 10 11 12 13 14 15 16 17 18 19 20 21 22 23 24 25 26 27 28 29 30 31 32 33 34 35 36 37 38 39 40 41 42 43 44 45 46 47 48 49 50
000
ASUS45 KPSR 020610
RWRAZ

ARIZONA REGIONAL HOURLY WEATHER ROUNDUP
NATIONAL WEATHER SERVICE PHOENIX AZ
1100 PM MST SUN MAR 01 2015

NOTE: FAIR INDICATES FEW OR NO CLOUDS BELOW 12,000 FEET WITH NO
SIGNIFICANT WEATHER AND/OR OBSTRUCTIONS TO VISIBILITY.

AZZ001>003-036-020700-
NORTHWEST ARIZONA

CITY           SKY/WX    TMP DP  RH WIND       PRES   REMARKS
BULLHEAD CITY  LGT RAIN  50  46  87 N13       29.96F
KINGMAN        LGT RAIN  41  39  93 NE6       29.93F
6HR MIN TEMP:  41; 6HR MAX TEMP:  44; 6HR PCP:  0.23;

$$

AZZ004>008-015-016-018-020700-
NORTH CENTRAL ARIZONA

CITY           SKY/WX    TMP DP  RH WIND       PRES   REMARKS
GRAND CANYON   FLURRIES  37  35  92 SE7       29.97F WCI  32
6HR MIN TEMP:  33; 6HR MAX TEMP:  38; 6HR PCP:  0.25;

PRESCOTT       LGT RAIN  48  40  73 S13       29.96F
6HR MIN TEMP:  43; 6HR MAX TEMP:  48; 6HR PCP:  0.02;

FLAGSTAFF      LGT RAIN  39  36  89 S16G22    30.00F WCI  30
6HR MIN TEMP:  38; 6HR MAX TEMP:  40; 6HR PCP:  0.24;

PAYSON         CLOUDY    48  43  81 VRB5      30.05S
PAGE           CLOUDY    36  33  89 SW5       30.01S WCI  32
6HR MIN TEMP:  36; 6HR MAX TEMP:  37; 6HR PCP:  0.13;

$$

AZZ009>014-017-020700-
NORTHEAST ARIZONA

CITY           SKY/WX    TMP DP  RH WIND       PRES   REMARKS
WINSLOW        FOG       36  35  96 E3        30.01F VSB 1/4
6HR MIN TEMP:  36; 6HR MAX TEMP:  50;

WINDOW ROCK    CLOUDY    44  36  73 S6        30.09S
6HR MIN TEMP:  41; 6HR MAX TEMP:  49;

SHOW LOW       CLEAR     41  36  81 S18       30.08F
$$

AZZ023-020700-
GREATER PHOENIX AREA

CITY           SKY/WX    TMP DP  RH WIND       PRES   REMARKS
PHOENIX        CLOUDY    67  49  52 S5        29.93R
6HR MIN TEMP:  66; 6HR MAX TEMP:  76;

BUCKEYE        MOCLDY    63  48  59 S10       29.94S
LUKE AFB       PTCLDY    64  50  59 SW12      29.92R
6HR MIN TEMP:  64; 6HR MAX TEMP:  73;

DEER VALLEY    CLOUDY    64  49  57 SW10      29.93R
6HR MIN TEMP:  63; 6HR MAX TEMP:  70;

SCOTTSDALE     CLOUDY    65  48  54 CALM      29.96R
6HR MIN TEMP:  65; 6HR MAX TEMP:  73;

MESA-GATEWAY   MOCLDY    63  50  63 SW8       29.97R
$$

AZZ027-028-020700-
SOUTHWEST MARICOPA COUNTY AND PINAL COUNTY

CITY           SKY/WX    TMP DP  RH WIND       PRES   REMARKS
CASA GRANDE    CLEAR     63  48  59 SW9       29.96R
6HR MIN TEMP:  63; 6HR MAX TEMP:  72;

GILA BEND      FAIR      64  48  54 S15       29.93S
6HR MIN TEMP:  64; 6HR MAX TEMP:  75;

$$

AZZ503-504-507>509-020700-
SOUTHEAST ARIZONA

CITY           SKY/WX    TMP DP  RH WIND       PRES   REMARKS
TUCSON         CLOUDY    65  44  46 S7        30.01F
6HR MIN TEMP:  65; 6HR MAX TEMP:  73;

DAVIS-MONTHAN  MOCLDY    63  44  50 S6        30.00S
6HR MIN TEMP:  63; 6HR MAX TEMP:  73;

NOGALES        CLOUDY    56  40  55 S7        30.04F
6HR MIN TEMP:  56; 6HR MAX TEMP:  67;

SIERRA VISTA   MOCLDY    55  36  48 S5        30.07S
6HR MIN TEMP:  54; 6HR MAX TEMP:  68;

DOUGLAS        CLOUDY    62  31  31 S16G25    30.07F
6HR MIN TEMP:  58; 6HR MAX TEMP:  71;

SAFFORD        CLOUDY    58  35  42 SE7       30.00R
6HR MIN TEMP:  58; 6HR MAX TEMP:  74;

$$

AZZ020-021-025-026-031-020700-
SOUTHWEST ARIZONA

CITY           SKY/WX    TMP DP  RH WIND       PRES   REMARKS
YUMA           CLOUDY    54  52  93 N5        29.95F
6HR MIN TEMP:  53; 6HR MAX TEMP:  57; 6HR PCP:  0.13;

$$

CAZ031-033-041-043-047-048-061-020700-
SOUTHERN CALIFORNIA

CITY           SKY/WX    TMP DP  RH WIND       PRES   REMARKS
DOWNTOWN L.A.  HVY RAIN  50  48  93 CALM      29.96R FOG
6HR MIN TEMP:  51; 6HR MAX TEMP:  59; 6HR PCP:  0.19;

L.A. AIRPORT   CLOUDY    54  47  77 NE8       29.95R
6HR MIN TEMP:  54; 6HR MAX TEMP:  60;

SAN DIEGO      MOCLDY    56  47  71 SE3       29.97R
6HR MIN TEMP:  55; 6HR MAX TEMP:  57; 6HR PCP:  0.03;

BURBANK        MOCLDY    50  45  83 N5        29.94S
6HR MIN TEMP:  50; 6HR MAX TEMP:  58; 6HR PCP:  0.29;

ONTARIO        CLOUDY    52  42  69 CALM      29.94S
6HR MIN TEMP:  51; 6HR MAX TEMP:  56;

RIVERSIDE      MOCLDY    50  42  74 SE5       29.94F
6HR MIN TEMP:  50; 6HR MAX TEMP:  56;

PALM SPRINGS   CLOUDY    51  51 100 SW5       29.97S
6HR MIN TEMP:  51; 6HR MAX TEMP:  53; 6HR PCP:  0.15;

EL CENTRO NAS  LGT RAIN  53  50  89 CALM      29.97R
6HR MIN TEMP:  53; 6HR MAX TEMP:  55; 6HR PCP:  0.02;

IMPERIAL       LGT RAIN  52  51  97 CALM      29.97R
6HR MIN TEMP:  52; 6HR MAX TEMP:  54; 6HR PCP:  0.05;

BLYTHE         LGT RAIN  52  51  97 NW5       29.95S
6HR MIN TEMP:  51; 6HR MAX TEMP:  53; 6HR PCP:  0.49;

NEEDLES        RAIN      51  47  86 S5        29.96S
6HR MIN TEMP:  51; 6HR MAX TEMP:  54; 6HR PCP:  0.26;

$$

NVZ020-UTZ003-020700-
SOUTHERN NEVADA-UTAH

CITY           SKY/WX    TMP DP  RH WIND       PRES   REMARKS
LAS VEGAS      LGT RAIN  47  42  83 VRB3      29.92F
6HR MIN TEMP:  47; 6HR MAX TEMP:  52; 6HR PCP:  0.21;

SALT LAKE CITY CLOUDY    40  30  67 CALM      29.98F
6HR MIN TEMP:  38; 6HR MAX TEMP:  46;

$$

NMZ009-TXZ055-020700-
NEW MEXICO-WEST TEXAS

CITY           SKY/WX    TMP DP  RH WIND       PRES   REMARKS
ALBUQUERQUE    MOCLDY    51  27  39 S12       30.10S
6HR MIN TEMP:  47; 6HR MAX TEMP:  63;

EL PASO        CLOUDY    61  30  31 CALM      30.10R
6HR MIN TEMP:  59; 6HR MAX TEMP:  74;

$$


........................KEY........................
SKY/WX - SKY CONDITION/WEATHER
TMP    - TEMPERATURE IN FAHRENHEIT
DP     - DEW POINT IN FAHRENHEIT
RH     - RELATIVE HUMIDITY IN PERCENT
WIND   - DIRECTION AND SPEED IN MILES PER HOUR (MPH)
VRB    - VARIABLE WIND DIRECTION
PRES   - MEAN SEA LEVEL PRESSURE IN INCHES OF MERCURY
         F - FALLING PRESSURE   R - RISING PRESSURE
         S - STEADY PRESSURE
VSB    - VISIBILITY IN MILES
HX     - HEAT INDEX IN FAHRENHEIT
WCI    - WIND CHILL INDEX IN FAHRENHEIT
TC     - TEMPERATURE IN CELSIUS WHICH IS ALSO KNOWN AS
         TEMPERATURE IN CENTIGRADE
AFB    - AIR FORCE BASE
         LUKE AFB IS LUKE AIR FORCE BASE
         DAVIS-MONTHAN IS DAVIS-MONTHAN AIR FORCE BASE
NAS    - NAVAL AIR STATION
         EL CENTRO NAS IS EL CENTRO NAVAL AIR STATION
N/A    - NOT AVAILABLE



USA.gov is the U.S. government's official web portal to all federal, state and local government web resources and services.